Weather past 2 weeks in Jamestown, Saint Helena

Now
68 °F

Mild.


Feels Like: 68 °F
Forecast: 76 / 78 °F
Wind: 15 mph from Southeast

Location: Saint Helena Island

Current Time: Feb 28, 2015 at 7:33:41 AM

Latest Report: Feb 28, 2015 at 5:00 AM


Visibility: N/A

Pressure: 29.97 "Hg

Humidity: 89%

Dew point: 65 °F

Location of JamestownLocation

Historic Weather in Jamestown — Graph

°F

Jamestown temperature yesterday

Maximum temperature yesterday: 72 °F (at 11:00 AM)
Minimum temperature yesterday: 65 °F (at 8:00 AM)
Average temperature yesterday: 69 °F

Past Weeks' High & Low Weather Summary

 TemperatureHumidityPressure
High76 °F (Feb 20, 3:00 PM)100% (Feb 15, 7:00 PM)30.10 "Hg (Feb 15, 7:00 PM)
Low65 °F (Feb 18, 7:00 AM)59% (Feb 19, 3:00 PM)29.88 "Hg (Feb 26, 4:00 PM)
Average70 °F87%29.99 "Hg
* Reported Feb 13 5:00 AM — Feb 28 5:00 AM, Jamestown, Weather by CustomWeather, © 2015

Note: Actual official high and low records may vary slightly from our data, if they occured in-between our weather recording intervals... More about our weather records

Advertising

Jamestown weather history for previous 24 hours

 ConditionsComfort  
Time TempWeatherWind HumidityBarometerVisibility
5:00 AM
Sat, Feb 28
68 °FMild.15 mph89%29.97 "HgN/A
4:00 AM68 °FMild.16 mph87%29.97 "HgN/A
2:00 AM68 °FMild.15 mph93%29.98 "HgN/A
1:00 AM68 °FMild.15 mph92%29.99 "HgN/A
12:00 AM68 °FMild.13 mph89%30.01 "HgN/A
11:00 PM
Fri, Feb 27
68 °FMild.15 mph90%30.02 "HgN/A
10:00 PM69 °FMild.15 mph92%30.01 "HgN/A
8:00 PM69 °FMild.14 mph89%29.98 "HgN/A
7:00 PM69 °FMild.15 mph91%29.96 "HgN/A
6:00 PM70 °FMild.15 mph85%29.94 "HgN/A
5:00 PM71 °FMild.14 mph78%29.92 "HgN/A
4:00 PM71 °FMild.15 mph78%29.92 "HgN/A
3:00 PM72 °FLow clouds.14 mph77%29.93 "Hg5 mi
2:00 PM71 °FMild.15 mph81%29.94 "HgN/A
1:00 PM71 °FMild.14 mph83%29.96 "HgN/A
12:00 PM69 °FLow clouds.12 mph92%29.98 "Hg2 mi
11:00 AM72 °FLow clouds.14 mph81%29.99 "Hg5 mi
10:00 AM71 °FOvercast.12 mph83%30.00 "Hg16 mi
9:00 AM68 °FLow clouds.13 mph91%29.99 "Hg9 mi
8:00 AM65 °FMild.17 mph97%29.99 "HgN/A
7:00 AM67 °FMild.14 mph97%29.95 "HgN/A
Weather by CustomWeather, © 2015

See weather overviewHow to use our weather pages